Total_Precipitation_Accumulation
1.62 1.79 2.04 2.30 2.89 3.38 3.86 3.96 3.83 3.12 2.46 2.15 1.91 1.79 1.61 1.45 1.44 1.38 1.27 1.20 1.10 1.08 1.21 1.11 1.02 1.02 1.04 1.01 1.16 1.28 1.29 1.07 1.27 1.42 0.95 0.65 0.52 0.45 0.35 0.33 0.37 0.40 0.48
1.67 2.03 2.50 2.73 2.65 2.97 3.46 3.42 2.92 2.35 1.90 1.64 1.49 1.36 1.29 1.16 1.06 0.96 0.91 0.86 0.86 0.89 0.96 0.94 0.85 0.81 0.84 0.83 0.90 1.04 1.04 0.93 1.20 1.34 1.20 0.85 0.63 0.50 0.36 0.36 0.37 0.41 0.52
1.53 1.90 2.31 2.57 2.45 2.64 2.64 2.20 1.81 1.49 1.25 1.10 1.01 1.00 0.94 0.82 0.67 0.58 0.55 0.58 0.62 0.62 0.61 0.61 0.65 0.70 0.70 0.72 0.78 0.94 1.07 0.94 0.97 1.19 1.31 1.05 0.74 0.65 0.50 0.49 0.53 0.58 0.65
0.98 1.25 1.46 1.78 1.95 1.89 1.71 1.49 1.28 1.06 0.95 0.92 0.84 0.84 0.71 0.61 0.52 0.43 0.43 0.44 0.45 0.44 0.43 0.45 0.55 0.62 0.67 0.71 0.67 0.72 0.88 0.93 0.85 0.95 1.06 1.08 1.08 1.02 0.74 0.56 0.53 0.60 0.63
0.59 0.74 0.83 0.98 1.17 1.24 1.17 1.02 1.06 1.04 0.93 0.85 0.77 0.73 0.59 0.48 0.41 0.42 0.45 0.46 0.45 0.43 0.39 0.39 0.41 0.50 0.58 0.64 0.66 0.69 0.74 0.81 0.80 0.81 0.86 0.93 1.03 1.03 0.94 0.69 0.54 0.55 0.54
0.42 0.51 0.52 0.56 0.64 0.71 0.75 0.75 0.79 0.86 0.77 0.73 0.70 0.65 0.57 0.50 0.43 0.40 0.39 0.38 0.39 0.39 0.39 0.39 0.41 0.43 0.44 0.48 0.55 0.61 0.66 0.72 0.74 0.74 0.81 0.89 0.88 0.88 0.99 0.86 0.70 0.64 0.58
0.29 0.35 0.36 0.37 0.41 0.42 0.45 0.47 0.51 0.56 0.55 0.58 0.61 0.58 0.54 0.48 0.41 0.34 0.31 0.30 0.29 0.32 0.36 0.38 0.43 0.48 0.49 0.49 0.51 0.57 0.64 0.70 0.76 0.75 0.78 0.86 0.90 0.90 0.99 0.96 0.79 0.73 0.77
0.21 0.21 0.22 0.23 0.24 0.21 0.25 0.28 0.28 0.30 0.32 0.42 0.48 0.42 0.39 0.34 0.31 0.38 0.35 0.29 0.26 0.29 0.35 0.40 0.43 0.46 0.52 0.55 0.62 0.65 0.70 0.75 0.78 0.76 0.87 0.93 0.89 0.98 1.04 1.10 1.12 1.00 0.99
0.12 0.12 0.12 0.13 0.15 0.15 0.15 0.17 0.21 0.25 0.25 0.24 0.28 0.30 0.28 0.27 0.30 0.35 0.32 0.27 0.26 0.24 0.25 0.32 0.43 0.45 0.48 0.56 0.65 0.69 0.74 0.80 0.85 0.89 0.98 1.05 1.03 1.03 1.03 1.16 1.26 1.30 1.25
0.06 0.07 0.07 0.09 0.12 0.13 0.14 0.17 0.20 0.20 0.19 0.17 0.15 0.14 0.20 0.26 0.33 0.35 0.28 0.25 0.23 0.21 0.22 0.26 0.33 0.37 0.40 0.49 0.62 0.70 0.77 0.89 0.97 0.97 1.00 1.08 1.11 1.16 1.16 1.17 1.25 1.38 1.46
0.03 0.04 0.04 0.06 0.10 0.13 0.14 0.15 0.17 0.18 0.16 0.15 0.14 0.16 0.23 0.26 0.33 0.46 0.43 0.27 0.21 0.20 0.18 0.19 0.21 0.22 0.25 0.33 0.50 0.71 0.83 0.94 0.99 1.01 1.06 1.09 1.18 1.20 1.12 1.17 1.23 1.33 1.46
0.04 0.04 0.04 0.06 0.09 0.13 0.14 0.13 0.16 0.17 0.17 0.18 0.15 0.16 0.23 0.26 0.28 0.34 0.37 0.29 0.24 0.22 0.19 0.17 0.16 0.14 0.17 0.26 0.43 0.60 0.76 0.91 1.02 1.05 1.06 0.97 0.98 1.09 1.13 1.16 1.20 1.24 1.37
0.05 0.05 0.07 0.11 0.09 0.12 0.14 0.14 0.16 0.17 0.18 0.23 0.26 0.21 0.17 0.15 0.15 0.18 0.22 0.25 0.28 0.29 0.26 0.23 0.21 0.25 0.30 0.37 0.47 0.53 0.65 0.81 0.90 0.93 0.92 0.88 0.92 0.93 1.03 1.09 1.11 1.13 1.13
0.05 0.06 0.07 0.09 0.15 0.14 0.15 0.16 0.18 0.20 0.27 0.27 0.25 0.22 0.20 0.19 0.20 0.21 0.22 0.26 0.28 0.29 0.28 0.27 0.31 0.37 0.43 0.46 0.46 0.49 0.56 0.62 0.68 0.73 0.72 0.70 0.76 0.82 0.88 0.91 0.94 0.99 1.05
0.07 0.06 0.06 0.09 0.18 0.22 0.20 0.18 0.19 0.23 0.30 0.36 0.34 0.27 0.22 0.22 0.24 0.24 0.24 0.26 0.27 0.27 0.31 0.35 0.37 0.41 0.44 0.43 0.46 0.50 0.45 0.51 0.50 0.48 0.51 0.53 0.56 0.63 0.72 0.74 0.78 0.87 0.93
0.13 0.11 0.09 0.11 0.14 0.18 0.21 0.19 0.19 0.21 0.27 0.34 0.40 0.43 0.38 0.32 0.31 0.33 0.30 0.32 0.31 0.33 0.38 0.40 0.41 0.42 0.38 0.36 0.36 0.36 0.34 0.37 0.41 0.41 0.39 0.38 0.43 0.48 0.53 0.58 0.63 0.73 0.81
0.12 0.12 0.12 0.12 0.13 0.15 0.16 0.17 0.16 0.21 0.35 0.42 0.42 0.52 0.57 0.50 0.51 0.53 0.46 0.44 0.43 0.44 0.46 0.48 0.50 0.51 0.53 0.39 0.30 0.25 0.27 0.32 0.37 0.42 0.44 0.32 0.26 0.35 0.44 0.51 0.52 0.54 0.61
0.13 0.13 0.11 0.10 0.11 0.12 0.12 0.14 0.18 0.23 0.35 0.41 0.41 0.51 0.62 0.57 0.57 0.58 0.56 0.60 0.65 0.67 0.68 0.68 0.67 0.67 0.62 0.47 0.32 0.25 0.23 0.29 0.34 0.39 0.43 0.41 0.35 0.35 0.41 0.50 0.54 0.51 0.49
0.11 0.11 0.12 0.12 0.12 0.14 0.15 0.17 0.26 0.34 0.43 0.50 0.55 0.62 0.73 0.76 0.78 0.75 0.76 0.82 0.90 0.93 0.97 0.99 0.95 0.89 0.82 0.63 0.41 0.32 0.31 0.38 0.41 0.43 0.43 0.43 0.39 0.32 0.28 0.39 0.48 0.52 0.52
0.13 0.15 0.17 0.17 0.18 0.20 0.24 0.29 0.38 0.50 0.60 0.62 0.65 0.73 0.89 0.97 0.96 0.94 0.96 1.01 1.10 1.12 1.11 1.02 0.94 0.89 0.87 0.76 0.51 0.43 0.43 0.50 0.52 0.58 0.56 0.47 0.43 0.36 0.29 0.36 0.46 0.48 0.50
0.13 0.17 0.21 0.25 0.29 0.32 0.38 0.46 0.54 0.61 0.61 0.64 0.72 0.78 0.96 1.16 1.15 1.18 1.18 1.18 1.21 1.26 1.27 1.22 1.15 1.09 1.03 0.92 0.62 0.51 0.53 0.59 0.63 0.61 0.61 0.58 0.48 0.37 0.29 0.30 0.39 0.41 0.47
0.14 0.18 0.21 0.24 0.32 0.40 0.51 0.60 0.62 0.63 0.67 0.72 0.78 0.88 1.08 1.17 1.20 1.30 1.32 1.35 1.35 1.32 1.32 1.36 1.29 1.26 1.22 1.02 0.77 0.59 0.59 0.70 0.82 0.80 0.77 0.76 0.64 0.49 0.40 0.33 0.30 0.32 0.37
0.15 0.17 0.20 0.24 0.31 0.42 0.56 0.70 0.73 0.74 0.73 0.73 0.78 0.88 0.98 1.06 1.17 1.23 1.21 1.26 1.34 1.35 1.37 1.37 1.33 1.32 1.39 1.23 0.88 0.72 0.68 0.74 0.89 1.00 1.02 0.89 0.73 0.62 0.51 0.45 0.39 0.36 0.36
0.15 0.17 0.19 0.26 0.32 0.39 0.52 0.64 0.70 0.73 0.72 0.68 0.69 0.78 0.94 0.99 1.07 1.19 1.20 1.26 1.32 1.36 1.44 1.45 1.38 1.35 1.43 1.39 1.10 0.87 0.76 0.73 0.79 0.89 0.93 0.87 0.83 0.74 0.64 0.54 0.45 0.37 0.38
0.13 0.15 0.21 0.28 0.33 0.42 0.56 0.66 0.72 0.76 0.79 0.76 0.72 0.74 0.83 0.93 0.99 1.11 1.21 1.22 1.22 1.18 1.20 1.26 1.24 1.26 1.36 1.31 1.08 0.93 0.85 0.80 0.81 0.86 0.92 0.93 0.93 0.84 0.76 0.68 0.63 0.60 0.59
0.13 0.18 0.24 0.31 0.35 0.41 0.52 0.61 0.75 0.90 0.94 0.88 0.80 0.76 0.77 0.85 0.91 1.00 1.02 0.92 0.90 0.86 0.85 0.88 0.83 0.83 0.99 1.01 0.82 0.70 0.72 0.72 0.69 0.75 0.84 0.90 0.95 0.90 0.83 0.79 0.74 0.74 0.71